| time (UTC) | temp F | wind direction | speed MPH | gust MPH | rain 1hr in | rain 24hr in | rain mn in | humidity % | barometer mb |
| 20260902211004 | 87 | 52 | 10.0 | 17.0 | 0.00 | 0.16 | 0.01 | 75 | 1013.2 |
| 20260902210004 | 87 | 53 | 11.0 | 18.0 | 0.00 | 0.18 | 0.01 | 76 | 1013.1 |
| 20260902205004 | 89 | 54 | 7.0 | 20.0 | 0.00 | 0.24 | 0.01 | 73 | 1013.1 |
| 20260902204004 | 90 | 50 | 5.0 | 15.0 | 0.00 | 0.32 | 0.01 | 71 | 1013.1 |
| 20260902203005 | 93 | 0 | 0.0 | 0.0 | 0.00 | 0.38 | 0.01 | 65 | 1013.0 |
| 20260902202004 | 92 | 0 | 0.0 | 0.0 | 0.00 | 0.68 | 0.01 | 65 | 1013.1 |
| 20260902201004 | 92 | 0 | 0.0 | 0.0 | 0.00 | 1.18 | 0.01 | 66 | 1013.2 |
| 20260902200004 | 92 | 0 | 0.0 | 0.0 | 0.00 | 1.45 | 0.01 | 65 | 1013.4 |
| 20260902195004 | 92 | 0 | 0.0 | 0.0 | 0.00 | 1.45 | 0.01 | 66 | 1013.5 |
| 20260902194025 | 92 | 0 | 0.0 | 0.0 | 0.00 | 1.45 | 0.01 | 67 | 1013.6 |
| 20260902193004 | 92 | 0 | 0.0 | 0.0 | 0.00 | 1.46 | 0.01 | 67 | 1013.7 |
| 20260902192004 | 92 | 0 | 0.0 | 0.0 | 0.00 | 1.46 | 0.01 | 65 | 1013.7 |
| 20260902191004 | 92 | 0 | 0.0 | 0.0 | 0.00 | 1.46 | 0.01 | 66 | 1014.0 |
| 20260902190004 | 92 | 0 | 0.0 | 0.0 | 0.00 | 1.46 | 0.01 | 67 | 1014.1 |
| 20260902185025 | 91 | 0 | 0.0 | 0.0 | 0.00 | 1.46 | 0.01 | 69 | 1014.2 |
| 20260902184025 | 91 | 0 | 0.0 | 0.0 | 0.00 | 1.46 | 0.01 | 67 | 1014.5 |
| 20260902183004 | 90 | 0 | 0.0 | 0.0 | 0.00 | 1.47 | 0.01 | 68 | 1014.5 |
| 20260902182005 | 90 | 0 | 0.0 | 0.0 | 0.00 | 1.56 | 0.01 | 70 | 1014.7 |
| 20260902181004 | 90 | 0 | 0.0 | 0.0 | 0.00 | 1.70 | 0.01 | 70 | 1014.9 |
| 20260902180025 | 89 | 0 | 0.0 | 0.0 | 0.00 | 1.70 | 0.01 | 70 | 1014.9 |
| 20260902175004 | 89 | 0 | 0.0 | 0.0 | 0.00 | 1.70 | 0.01 | 71 | 1015.1 |
| 20260902174004 | 89 | 0 | 0.0 | 0.0 | 0.00 | 1.70 | 0.01 | 70 | 1015.2 |
| 20260902173004 | 89 | 0 | 0.0 | 0.0 | 0.00 | 1.70 | 0.01 | 71 | 1015.2 |
| 20260902172025 | 89 | 0 | 0.0 | 0.0 | 0.00 | 1.70 | 0.01 | 70 | 1015.3 |
| 20260902171004 | 89 | 0 | 0.0 | 0.0 | 0.00 | 1.70 | 0.01 | 73 | 1015.5 |
| 20260902170004 | 88 | 0 | 0.0 | 0.0 | 0.00 | 1.70 | 0.01 | 73 | 1015.6 |
| 20260902165025 | 88 | 0 | 0.0 | 0.0 | 0.00 | 1.70 | 0.01 | 74 | 1015.9 |
| 20260902164004 | 88 | 0 | 0.0 | 0.0 | 0.00 | 1.70 | 0.01 | 75 | 1016.1 |
| 20260902163004 | 87 | 0 | 0.0 | 0.0 | 0.00 | 1.70 | 0.01 | 75 | 1016.2 |
| 20260902162004 | 88 | 0 | 0.0 | 0.0 | 0.00 | 1.70 | 0.01 | 75 | 1016.2 |
| 20260902161025 | 88 | 0 | 0.0 | 0.0 | 0.00 | 1.70 | 0.01 | 77 | 1016.3 |
| 20260902160006 | 87 | 0 | 0.0 | 0.0 | 0.00 | 1.70 | 0.01 | 78 | 1016.6 |
| 20260902155004 | 87 | 0 | 0.0 | 0.0 | 0.00 | 1.70 | 0.01 | 76 | 1016.6 |
| 20260902154004 | 86 | 0 | 0.0 | 0.0 | 0.00 | 1.70 | 0.01 | 77 | 1016.5 |
| 20260902153004 | 86 | 0 | 0.0 | 0.0 | 0.00 | 1.70 | 0.01 | 79 | 1016.5 |
| 20260902152004 | 85 | 0 | 0.0 | 0.0 | 0.00 | 1.70 | 0.01 | 79 | 1016.8 |
| 20260902151004 | 85 | 52 | 1.0 | 4.0 | 0.00 | 1.70 | 0.01 | 81 | 1016.9 |
| 20260902150004 | 84 | 53 | 3.0 | 5.0 | 0.00 | 1.70 | 0.01 | 82 | 1016.8 |
| 20260902145004 | 84 | 47 | 3.0 | 6.0 | 0.00 | 1.70 | 0.01 | 84 | 1016.7 |
| 20260902144025 | 83 | 45 | 4.0 | 6.0 | 0.00 | 1.70 | 0.01 | 84 | 1016.9 |
| 20260902143004 | 83 | 20 | 3.0 | 7.0 | 0.00 | 1.70 | 0.01 | 85 | 1016.7 |
| 20260902142004 | 82 | 12 | 2.0 | 7.0 | 0.00 | 1.70 | 0.01 | 88 | 1016.6 |
| 20260902141004 | 82 | 20 | 3.0 | 8.0 | 0.00 | 1.70 | 0.01 | 91 | 1016.7 |
| 20260902140005 | 81 | 21 | 4.0 | 9.0 | 0.00 | 1.70 | 0.01 | 92 | 1016.6 |
| 20260902135004 | 80 | 16 | 3.0 | 6.0 | 0.00 | 1.70 | 0.01 | 94 | 1016.6 |
| 20260902134004 | 79 | 10 | 1.0 | 5.0 | 0.00 | 1.70 | 0.01 | 95 | 1016.7 |
| 20260902133004 | 79 | 0 | 0.0 | 0.0 | 0.00 | 1.70 | 0.01 | 95 | 1016.7 |
| 20260902132004 | 79 | 0 | 0.0 | 0.0 | 0.00 | 1.70 | 0.01 | 95 | 1016.7 |
| 20260902131025 | 78 | 355 | 1.0 | 4.0 | 0.00 | 1.70 | 0.01 | 96 | 1016.7 |
| 20260902130004 | 78 | 357 | 1.0 | 5.0 | 0.00 | 1.70 | 0.01 | 95 | 1016.6 |
| 20260902125004 | 78 | 351 | 1.0 | 3.0 | 0.00 | 1.70 | 0.01 | 96 | 1016.6 |
| 20260902124025 | 78 | 352 | 0.0 | 4.0 | 0.01 | 1.70 | 0.01 | 96 | 1016.5 |
| 20260902123004 | 77 | 299 | 0.0 | 1.0 | 0.01 | 1.70 | 0.01 | 96 | 1016.4 |
| 20260902122004 | 76 | 300 | 0.0 | 3.0 | 0.01 | 1.70 | 0.01 | 96 | 1016.5 |
| 20260902121004 | 76 | 307 | 0.0 | 3.0 | 0.01 | 1.70 | 0.01 | 95 | 1016.5 |
| 20260902120004 | 76 | 309 | 0.0 | 2.0 | 0.01 | 1.70 | 0.01 | 95 | 1016.5 |
| 20260902115025 | 76 | 309 | 0.0 | 1.0 | 0.01 | 1.70 | 0.01 | 95 | 1016.6 |
| 20260902114004 | 75 | 309 | 0.0 | 2.0 | 0.00 | 1.69 | 0.00 | 95 | 1016.1 |
| 20260902113025 | 75 | 0 | 0.0 | 0.0 | 0.00 | 1.69 | 0.00 | 95 | 1016.0 |
| 20260902112004 | 75 | 0 | 0.0 | 0.0 | 0.00 | 1.69 | 0.00 | 95 | 1016.1 |
| 20260902111004 | 75 | 309 | 0.0 | 2.0 | 0.00 | 1.69 | 0.00 | 95 | 1016.0 |
| 20260902110007 | 75 | 0 | 0.0 | 0.0 | 0.00 | 1.69 | 0.00 | 95 | 1016.0 |
| 20260902105004 | 75 | 0 | 0.0 | 0.0 | 0.00 | 1.69 | 0.00 | 95 | 1015.8 |
| 20260902104004 | 75 | 0 | 0.0 | 0.0 | 0.00 | 1.69 | 0.00 | 95 | 1015.6 |
| 20260902103004 | 76 | 0 | 0.0 | 0.0 | 0.00 | 1.69 | 0.00 | 95 | 1015.6 |
| 20260902102025 | 76 | 322 | 0.0 | 1.0 | 0.00 | 1.69 | 0.00 | 95 | 1015.5 |
| 20260902101004 | 76 | 0 | 0.0 | 0.0 | 0.00 | 1.69 | 0.00 | 95 | 1015.5 |
| 20260902100004 | 76 | 0 | 0.0 | 0.0 | 0.00 | 1.69 | 0.00 | 95 | 1015.4 |
| 20260902095004 | 76 | 0 | 0.0 | 0.0 | 0.00 | 1.69 | 0.00 | 95 | 1015.4 |
| 20260902094004 | 76 | 0 | 0.0 | 0.0 | 0.00 | 1.69 | 0.00 | 95 | 1015.4 |
| 20260902093025 | 76 | 0 | 0.0 | 0.0 | 0.00 | 1.69 | 0.00 | 95 | 1015.3 |
| 20260902092004 | 76 | 3 | 0.0 | 1.0 | 0.00 | 1.69 | 0.00 | 95 | 1015.4 |
| 20260902091004 | 76 | 0 | 0.0 | 0.0 | 0.00 | 1.69 | 0.00 | 95 | 1015.4 |
| 20260902090005 | 77 | 357 | 0.0 | 3.0 | 0.00 | 1.69 | 0.00 | 95 | 1015.0 |
| 20260902085004 | 77 | 356 | 0.0 | 3.0 | 0.00 | 1.69 | 0.00 | 95 | 1015.0 |
| 20260902084004 | 77 | 358 | 1.0 | 3.0 | 0.00 | 1.69 | 0.00 | 95 | 1015.0 |
| 20260902083004 | 77 | 12 | 2.0 | 5.0 | 0.00 | 1.69 | 0.00 | 95 | 1014.8 |
| 20260902082004 | 77 | 21 | 3.0 | 6.0 | 0.00 | 1.69 | 0.00 | 95 | 1014.8 |
| 20260902081004 | 77 | 23 | 0.0 | 5.0 | 0.00 | 1.69 | 0.00 | 95 | 1014.8 |
| 20260902080004 | 76 | 0 | 0.0 | 0.0 | 0.00 | 1.69 | 0.00 | 95 | 1014.8 |
| 20260902075004 | 76 | 0 | 0.0 | 0.0 | 0.00 | 1.69 | 0.00 | 95 | 1015.0 |
| 20260902074004 | 76 | 0 | 0.0 | 0.0 | 0.00 | 1.69 | 0.00 | 95 | 1015.1 |
| 20260902073004 | 76 | 0 | 0.0 | 0.0 | 0.00 | 1.69 | 0.00 | 95 | 1015.0 |
| 20260902072004 | 76 | 0 | 0.0 | 0.0 | 0.00 | 1.69 | 0.00 | 95 | 1015.0 |
| 20260902071004 | 76 | 0 | 0.0 | 0.0 | 0.00 | 1.69 | 0.00 | 95 | 1015.2 |
| 20260902070006 | 76 | 0 | 0.0 | 0.0 | 0.00 | 1.69 | 0.00 | 95 | 1015.2 |
| 20260902065004 | 76 | 0 | 0.0 | 0.0 | 0.00 | 1.69 | 0.00 | 95 | 1015.2 |
| 20260902064004 | 76 | 0 | 0.0 | 0.0 | 0.00 | 1.69 | 0.00 | 95 | 1015.3 |
| 20260902063004 | 75 | 0 | 0.0 | 0.0 | 0.00 | 1.69 | 0.00 | 95 | 1015.3 |
| 20260902062004 | 75 | 0 | 0.0 | 0.0 | 0.00 | 1.69 | 0.00 | 95 | 1015.5 |
| 20260902061004 | 76 | 0 | 0.0 | 0.0 | 0.00 | 1.69 | 0.00 | 95 | 1015.6 |
| 20260902060025 | 76 | 0 | 0.0 | 0.0 | 0.00 | 1.69 | 0.00 | 95 | 1015.7 |
| 20260902055004 | 76 | 0 | 0.0 | 0.0 | 0.00 | 1.69 | 0.00 | 95 | 1015.7 |
| 20260902054025 | 76 | 0 | 0.0 | 0.0 | 0.00 | 1.69 | 0.00 | 95 | 1015.9 |
| 20260902053004 | 76 | 0 | 0.0 | 0.0 | 0.00 | 1.69 | 0.00 | 95 | 1015.8 |
| 20260902052003 | 76 | 0 | 0.0 | 0.0 | 0.00 | 1.69 | 0.00 | 95 | 1015.9 |
| 20260902051004 | 76 | 0 | 0.0 | 0.0 | 0.00 | 1.69 | 0.00 | 95 | 1015.9 |
| 20260902050007 | 76 | 0 | 0.0 | 0.0 | 0.00 | 1.69 | 0.00 | 95 | 1016.0 |
| 20260902045025 | 76 | 0 | 0.0 | 0.0 | 0.00 | 1.69 | 0.00 | 95 | 1015.9 |
| 20260902044004 | 76 | 0 | 0.0 | 0.0 | 0.00 | 1.69 | 0.00 | 95 | 1016.1 |
| 20260902043004 | 76 | 0 | 0.0 | 0.0 | 0.00 | 1.69 | 0.00 | 95 | 1016.1 |
| 20260902042004 | 76 | 0 | 0.0 | 0.0 | 0.01 | 1.69 | 0.00 | 95 | 1016.0 |
| 20260902041004 | 76 | 0 | 0.0 | 0.0 | 0.01 | 1.69 | 0.00 | 95 | 1016.1 |
| 20260902040005 | 76 | 0 | 0.0 | 0.0 | 0.01 | 1.69 | 0.00 | 95 | 1016.1 |
| 20260902035004 | 76 | 0 | 0.0 | 0.0 | 0.01 | 1.69 | 1.69 | 95 | 1016.2 |
| 20260902034004 | 76 | 0 | 0.0 | 0.0 | 0.01 | 1.69 | 1.69 | 95 | 1016.4 |
| 20260902033025 | 76 | 0 | 0.0 | 0.0 | 0.01 | 1.69 | 1.69 | 95 | 1016.5 |
| 20260902032004 | 76 | 0 | 0.0 | 0.0 | 0.00 | 1.68 | 1.68 | 95 | 1016.7 |
| 20260902031004 | 76 | 0 | 0.0 | 0.0 | 0.00 | 1.68 | 1.68 | 95 | 1016.7 |
| 20260902030004 | 77 | 0 | 0.0 | 0.0 | 0.00 | 1.68 | 1.68 | 95 | 1016.7 |
| 20260902025004 | 77 | 0 | 0.0 | 0.0 | 0.00 | 1.68 | 1.68 | 95 | 1016.8 |
| 20260902024004 | 77 | 0 | 0.0 | 0.0 | 0.00 | 1.68 | 1.68 | 95 | 1016.8 |
| 20260902023004 | 77 | 0 | 0.0 | 0.0 | 0.00 | 1.68 | 1.68 | 95 | 1016.8 |
| 20260902022004 | 77 | 0 | 0.0 | 0.0 | 0.00 | 1.68 | 1.68 | 95 | 1016.8 |
| 20260902021004 | 77 | 0 | 0.0 | 0.0 | 0.00 | 1.68 | 1.68 | 94 | 1016.8 |
| 20260902020025 | 77 | 0 | 0.0 | 0.0 | 0.00 | 1.68 | 1.68 | 95 | 1016.6 |
| 20260902015004 | 77 | 0 | 0.0 | 0.0 | 0.00 | 1.68 | 1.68 | 95 | 1016.5 |
| 20260902014004 | 77 | 0 | 0.0 | 0.0 | 0.00 | 1.68 | 1.68 | 95 | 1016.5 |
| 20260902013004 | 77 | 0 | 0.0 | 0.0 | 0.00 | 1.68 | 1.68 | 95 | 1016.2 |
| 20260902012004 | 77 | 0 | 0.0 | 0.0 | 0.00 | 1.68 | 1.68 | 94 | 1016.3 |
| 20260902011004 | 77 | 0 | 0.0 | 0.0 | 0.00 | 1.68 | 1.68 | 95 | 1016.2 |
| 20260902010004 | 77 | 159 | 0.0 | 1.0 | 0.00 | 1.68 | 1.68 | 95 | 1016.2 |
| 20260902005004 | 77 | 0 | 0.0 | 0.0 | 0.00 | 1.68 | 1.68 | 95 | 1015.9 |
| 20260902004003 | 77 | 0 | 0.0 | 0.0 | 0.01 | 1.68 | 1.68 | 95 | 1015.9 |
| 20260902003004 | 77 | 0 | 0.0 | 0.0 | 0.01 | 1.68 | 1.68 | 95 | 1016.0 |
| 20260902002025 | 77 | 0 | 0.0 | 0.0 | 0.01 | 1.68 | 1.68 | 94 | 1016.1 |
| 20260902001004 | 77 | 0 | 0.0 | 0.0 | 0.01 | 1.68 | 1.68 | 94 | 1016.1 |
| 20260902000004 | 77 | 0 | 0.0 | 0.0 | 0.02 | 1.68 | 1.68 | 95 | 1016.1 |
| 20260901235004 | 76 | 0 | 0.0 | 0.0 | 0.02 | 1.68 | 1.68 | 94 | 1016.0 |
| 20260901234004 | 76 | 0 | 0.0 | 0.0 | 0.02 | 1.67 | 1.67 | 94 | 1016.0 |
| 20260901233003 | 77 | 0 | 0.0 | 0.0 | 0.03 | 1.67 | 1.67 | 94 | 1015.9 |
| 20260901232025 | 76 | 0 | 0.0 | 0.0 | 0.06 | 1.67 | 1.67 | 94 | 1015.8 |
| 20260901231024 | 76 | 0 | 0.0 | 0.0 | 0.08 | 1.67 | 1.67 | 94 | 1015.9 |
| 20260901230004 | 76 | 0 | 0.0 | 0.0 | 0.09 | 1.66 | 1.66 | 94 | 1015.9 |
| 20260901225003 | 76 | 0 | 0.0 | 0.0 | 0.09 | 1.66 | 1.66 | 94 | 1015.8 |
| 20260901224004 | 76 | 0 | 0.0 | 0.0 | 0.08 | 1.65 | 1.65 | 94 | 1015.7 |
| 20260901223004 | 76 | 0 | 0.0 | 0.0 | 0.07 | 1.64 | 1.64 | 94 | 1015.6 |
| 20260901222003 | 76 | 0 | 0.0 | 0.0 | 0.05 | 1.61 | 1.61 | 94 | 1015.6 |
| 20260901221004 | 76 | 0 | 0.0 | 0.0 | 0.05 | 1.59 | 1.59 | 94 | 1015.7 |
| 20260901220004 | 75 | 0 | 0.0 | 0.0 | 0.05 | 1.57 | 1.57 | 94 | 1015.4 |
| 20260901215003 | 75 | 0 | 0.0 | 0.0 | 0.11 | 1.57 | 1.57 | 94 | 1015.4 |
| 20260901214003 | 75 | 0 | 0.0 | 0.0 | 0.19 | 1.57 | 1.57 | 93 | 1015.7 |
| 20260901213003 | 75 | 0 | 0.0 | 0.0 | 0.25 | 1.57 | 1.57 | 93 | 1015.8 |
| 20260901212003 | 76 | 0 | 0.0 | 0.0 | 0.54 | 1.56 | 1.56 | 93 | 1015.5 |